"Pseudo-MPEC" for C0GU3H5

Created 2023 Mar 22 0:22:06 UT using Find_Orb

Click here for an explanation of pseudo-MPECs

 
 Astrometry: 
     C0GU3H5* C2023 03 18pu7Y\o)JA[ta00i(,$B\uU]Uc(qr3gn%Pt)T;NN8FW?,5;h-7DjFV00
     C0GU3H5  C2023 03 18aM=Y`^'e^W_A1T`:14RWEKc4g+A$)2$j9A$y%+?=cX^NgDhR3u/2V00
     C0GU3H5  C2023 03 18FLGg1hE;TI_mjcGIo@@2x%:?#]qjXZ#X`JFrlEgGoLn96;=_5]K4V00
     C0GU3H5  C2023 03 18?-t%d49AmkmL^89_aeS!UIr:^/?LL_Za9PR`C,+jXC(q(D]6El_qV00
     C0GU3H5 mC2023 03 18-w$,e8,'Q%1]eTjJxHntv$1f##%td#!k'-0?nkJs-80Qb.ViN-m_V00
     C0GU3H5 mC2023 03 18sqbykMVlr7T\0HNZA*AY;sAIMRl!_``X11)gI!$#^4%fHFpDY1=5V00
     C0GU3H5 mC2023 03 18DR'EkA_JRa5/E#2F[5*J:JL:Aps,gMA1Z#0KDIOQe?:0BLVWa;'UV00
     C0GU3H5 mC2023 03 18eTI,$vmlI4W]khcjklAV1[f--weH8FWWTZYV1%Yy\=k$Z[pLV^kmV00
     C0GU3H5 |C2023 03 19ERj0T\Wem1E1D!BI4v,QgdeZ8XaP#.uUR`/4qN'\sm'NiPbe6nR!807
     C0GU3H5 |C2023 03 19YT5qfP!i^Qx67-$.[`D.SK\BE.lm:mLo]x53y%L*#ueA][(/4SEV807
     C0GU3H5 mC2023 03 19/D7YI(,=@ovFbO?)3?d;(Rn(cXL'Z:]\BjR:d!60U6r+/V)tY1M'V00
     C0GU3H5 mC2023 03 19mj_tqs8fWN.GZHe[9uk)Gv9W:BRM-YT!Inutgg`xoIy)Kdd9/n;+V00
     C0GU3H5 mC2023 03 19ary)$6][k`)@5J-uIVxH_Jg$hg\AsCnLrSqAstrometry0hbpq)_V00
     C0GU3H5 mC2023 03 19uj[D!3G:]4rLn`bj3`^_f0l7@ZTkredacted;+]P''e%\yw6:oc/V00
     C0GU3H5 |C2023 03 19%-v?k6_U(wv=QAhqclick]I7c,6i]L^,C!p.lAS(.1W*Nb%P*whT807
     C0GU3H5 |C2023 03 204Q:$tQ*2]M3SOuFpN(Q]9bAA%GL/x:cfEWherejfors.N,FsSQoS807
     C0GU3H5 |C2023 03 20w\-ZuIVqNWC^/7!u\3?UAm;AI5u!^NW[0p`gWp]TTFk/A'B:\daR807
     C0GU3H5 |C2023 03 20+1AZf%/C:sexplanation;dY(j6x'D,M5H^bS$_b5B!++xy%9d8u807

Station data:
(807) Cerro Tololo Observatory, La Serena  (S30.169133 W70.805900)  Chile.
   Observer R. Holmes. 0.61-m f/6.5 astrograph + CCD.
(V00) Kitt Peak-Bok  (N31.963125 W111.600190)  US/Arizona.  Observers T. A.
   Pruyne, B. M. Africano, E. J. Christensen, G. A. Farneth, D. C. Fuls, A.
   R. Gibbs, A. D. Grauer, H. Gröller, J. A. Johnson, R. A. Kowalski, S. M.
   Larson, G. J. Leonard, D. Rankin, R. L. Seaman, F. C. Shelly, K. W.
   Wierzchoś. 2.25-m reflector + CCD.

Orbital elements:  C0GU3H5
   Perihelion 2023 Apr 26.99046 +/- 0.337 TT = 23:46:15 (JD 2460061.49046)
Epoch 2023 Mar 20.0 TT = JDT 2460023.5   Earth MOID: 0.3099      AutoNEOCP
M 350.16369394 +/- 0.15             (J2000 ecliptic)
n   0.25891514 +/- 0.00408          Peri.   35.41669 +/- 0.32
a   2.43798525 +/- 0.0256           Node   171.89840 +/- 0.0040
e   0.4717580 +/- 0.00471           Incl.   11.90026 +/- 0.10
P   3.81                   H 23.58  G  0.15   U  9.0
q 1.28784611 +/- 0.00303    Q 3.58812438 +/- 0.049
From 18 observations 2023 Mar. 18-20 (45.2 hr); mean residual 0".17
Residuals in arcseconds: 
230318 V00  .08-  .39+    230318 V00  .10-  .29-    230319 V00  .16-  .01-    
230318 V00  .27-  .12-    230318 V00  .06+  .27+    230319 V00  .07+  .13+    
230318 V00  .10+  .36-    230319 807  .22-  .03+    230319 807  .02+  .02+    
230318 V00  .16+  .19+    230319 807  .04+  .08-    230320 807  .03+  .06-    
230318 V00  .07+  .30-    230319 V00  .17+  .08-    230320 807  .05-  .23+    
230318 V00  .07+  .17+    230319 V00  .19+  .04+    230320 807  .02+  .17-    

Ephemerides (geocentric):
Date (UTC) HH   RA             Dec           delta  r     elong  mag " sig PA
---- --------  ------------   ------------  ------ ------ -----  --- --------
2023 03 22 00  11 38 59.907   +08 06 10.29  .34848 1.3405 169.7 22.5 .150 132
2023 03 22 01  11 39 01.993   +08 07 38.11  .34839 1.3404 169.6 22.5 .154 129
2023 03 22 02  11 39 04.082   +08 09 05.95  .34830 1.3403 169.6 22.5 .157 127
2023 03 22 03  11 39 06.174   +08 10 33.81  .34821 1.3401 169.5 22.5 .161 124
2023 03 22 04  11 39 08.269   +08 12 01.68  .34813 1.3400 169.5 22.5 .166 122
2023 03 22 05  11 39 10.366   +08 13 29.57  .34804 1.3399 169.4 22.5 .170 120
2023 03 22 06  11 39 12.465   +08 14 57.48  .34795 1.3398 169.4 22.5 .175 118
2023 03 22 07  11 39 14.568   +08 16 25.40  .34786 1.3397 169.3 22.5 .181 115
2023 03 22 08  11 39 16.673   +08 17 53.34  .34777 1.3396 169.3 22.5 .186 113
2023 03 22 09  11 39 18.781   +08 19 21.29  .34769 1.3394 169.2 22.5 .192 111
2023 03 22 10  11 39 20.891   +08 20 49.26  .34760 1.3393 169.2 22.5 .199 110
2023 03 22 11  11 39 23.004   +08 22 17.25  .34751 1.3392 169.1 22.5 .205 108
2023 03 22 12  11 39 25.120   +08 23 45.25  .34743 1.3391 169.1 22.5 .212 106
2023 03 22 13  11 39 27.238   +08 25 13.26  .34734 1.3390 169.0 22.5 .220 104
2023 03 22 14  11 39 29.359   +08 26 41.29  .34726 1.3389 169.0 22.5 .227 103
2023 03 22 15  11 39 31.483   +08 28 09.34  .34717 1.3387 168.9 22.5 .235 101
2023 03 22 16  11 39 33.610   +08 29 37.39  .34709 1.3386 168.9 22.5 .243 100
2023 03 22 17  11 39 35.739   +08 31 05.47  .34700 1.3385 168.8 22.5 .252  99
2023 03 22 18  11 39 37.871   +08 32 33.55  .34692 1.3384 168.8 22.5 .261  97
2023 03 22 19  11 39 40.006   +08 34 01.65  .34683 1.3383 168.7 22.5 .270  96
2023 03 22 20  11 39 42.143   +08 35 29.76  .34675 1.3382 168.7 22.5 .279  95
2023 03 22 21  11 39 44.284   +08 36 57.88  .34666 1.3380 168.6 22.5 .289  94
2023 03 22 22  11 39 46.426   +08 38 26.02  .34658 1.3379 168.6 22.5 .298  93
2023 03 22 23  11 39 48.572   +08 39 54.17  .34650 1.3378 168.5 22.5 .308  92
2023 03 23 00  11 39 50.721   +08 41 22.33  .34642 1.3377 168.5 22.5 .319  91
2023 03 23 01  11 39 52.872   +08 42 50.50  .34633 1.3376 168.4 22.5 .329  90
2023 03 23 02  11 39 55.026   +08 44 18.68  .34625 1.3375 168.4 22.5 .340  89
2023 03 23 03  11 39 57.183   +08 45 46.87  .34617 1.3374 168.3 22.5 .351  88
2023 03 23 04  11 39 59.342   +08 47 15.08  .34609 1.3372 168.3 22.5 .363  87
2023 03 23 05  11 40 01.505   +08 48 43.29  .34601 1.3371 168.2 22.5 .374  87
2023 03 23 06  11 40 03.670   +08 50 11.51  .34593 1.3370 168.2 22.5 .386  86
2023 03 23 07  11 40 05.838   +08 51 39.75  .34585 1.3369 168.1 22.6 .398  85
2023 03 23 08  11 40 08.009   +08 53 07.99  .34577 1.3368 168.1 22.6 .410  85
2023 03 23 09  11 40 10.182   +08 54 36.25  .34569 1.3367 168.0 22.6 .423  84
2023 03 23 10  11 40 12.359   +08 56 04.51  .34561 1.3366 168.0 22.6 .436  83
2023 03 23 11  11 40 14.538   +08 57 32.78  .34553 1.3364 167.9 22.6 .449  83
2023 03 23 12  11 40 16.720   +08 59 01.06  .34545 1.3363 167.9 22.6 .462  82
2023 03 23 13  11 40 18.905   +09 00 29.34  .34537 1.3362 167.8 22.6 .475  82
2023 03 23 14  11 40 21.093   +09 01 57.64  .34529 1.3361 167.8 22.6 .489  81
2023 03 23 15  11 40 23.283   +09 03 25.94  .34521 1.3360 167.7 22.6 .503  81
2023 03 23 16  11 40 25.477   +09 04 54.25  .34513 1.3359 167.7 22.6 .517  80
2023 03 23 17  11 40 27.673   +09 06 22.57  .34506 1.3358 167.6 22.6 .531  80
2023 03 23 18  11 40 29.872   +09 07 50.90  .34498 1.3357 167.6 22.6 .545  80
2023 03 23 19  11 40 32.074   +09 09 19.23  .34490 1.3355 167.5 22.6 .560  79
2023 03 23 20  11 40 34.279   +09 10 47.56  .34482 1.3354 167.5 22.6 .575  79
2023 03 23 21  11 40 36.487   +09 12 15.91  .34475 1.3353 167.4 22.6 .590  78
2023 03 23 22  11 40 38.698   +09 13 44.26  .34467 1.3352 167.4 22.6 .605  78
2023 03 23 23  11 40 40.912   +09 15 12.61  .34460 1.3351 167.3 22.6 .621  78